Darstellungsparameter: Aktuell verwendete Einstellungen:
Skalierung der Graphiken ... ?
xyx+y,   Skalierungsfaktor:      Skalierung: Modus: x, Faktor: 1
Darstellungszeitraum ... ?
Vom - - bis: - -   Zeitraum: 09.05.2010 - 15.05.2010
Min/Max/Avg-Anzeige ... ?
Zeige MMA aktuell
Zeige MMA Monat
Zeige MMA alles
Zeige --A aktuell
Zeige --A Monat
Zeige --A alles
Keine MMA-Anzeige
MMA:
Minimum Maximum Average (ber die Originaldaten)
MMA-Basis: 14.04.2020 - 16.05.2020
Quicknavigation für Darstellung... ?
Tage:      1T, 2T, 3T, 5T -1T -2T -3T -5T +1T +2T +3T +5T
Wochen: 1W, 2W, 3W -1W -2W -3W +1W +2W +3W
Monate: 1M, 3M, 6M -1M -3M -6M +1M +3M +6M
Jahre:    1J, 3J, 5J, 10J -1J -3J -5J -10J +1J +3J +5J +10J
Nutze für die Darstellung ... ?
Originaldaten oder Mittelwerte auf ...
Stundenbasis Tagesbasis Wochenbasis
Monatsbasis Jahresbasis      Datenbasis: Original-Daten
Darstellen als:
Statistik (Auto) Statistik J:M      Darstellung:
Zur Graphik,    zurück zur Übersicht aller Sensoren.
 
Tabellarische Datenbersicht: ?
 
Sensor: Nr:Datum:Temp:Abs-Feuchte:Windchill:Wind:
Aussen-T/F 1 09-05-2010 00:00:02 10.2 C 6.38 g/m*3 10.2 C 0 km/h
2 09-05-2010 00:12:02 10 C 6.39 g/m*3 10 C 0 km/h
3 09-05-2010 00:24:03 9.8 C 6.49 g/m*3 9.8 C 0 km/h
4 09-05-2010 00:36:02 9.6 C 6.41 g/m*3 9.6 C 0 km/h
5 09-05-2010 00:48:02 9.4 C 6.42 g/m*3 9.4 C 0 km/h
6 09-05-2010 01:00:02 9.1 C 6.39 g/m*3 9.1 C 0 km/h
7 09-05-2010 01:12:02 9 C 6.52 g/m*3 9 C 0 km/h
8 09-05-2010 01:24:03 8.7 C 6.49 g/m*3 8.7 C 0 km/h
9 09-05-2010 01:36:02 8.6 C 6.44 g/m*3 8.6 C 0 km/h
10 09-05-2010 01:48:03 8.7 C 6.57 g/m*3 8.7 C 0 km/h
11 09-05-2010 02:00:03 8.8 C 6.7 g/m*3 8.8 C 0 km/h
12 09-05-2010 02:12:02 8.7 C 6.66 g/m*3 8.7 C 0 km/h
13 09-05-2010 02:24:02 8.7 C 6.66 g/m*3 8.7 C 0 km/h
14 09-05-2010 02:36:02 8.4 C 6.53 g/m*3 8.4 C 0 km/h
15 09-05-2010 02:49:04 8.5 C 6.57 g/m*3 8.5 C 0 km/h
16 09-05-2010 03:01:04 8.5 C 6.66 g/m*3 8.5 C 0 km/h
17 09-05-2010 03:13:03 8.3 C 6.57 g/m*3 8.3 C 0 km/h
18 09-05-2010 03:25:03 8.5 C 6.66 g/m*3 8.5 C 0 km/h
19 09-05-2010 03:37:01 8.5 C 6.66 g/m*3 8.5 C 0 km/h
20 09-05-2010 03:49:01 8.5 C 6.66 g/m*3 8.5 C 0 km/h
21 09-05-2010 04:01:01 8.6 C 6.7 g/m*3 8.6 C 0 km/h
22 09-05-2010 04:13:01 8.6 C 6.7 g/m*3 8.6 C 0 km/h
23 09-05-2010 04:25:02 8.5 C 6.66 g/m*3 8.5 C 0 km/h
24 09-05-2010 04:37:01 8.5 C 6.66 g/m*3 8.5 C 0 km/h
25 09-05-2010 04:49:03 8.3 C 6.57 g/m*3 8.3 C 0 km/h
Sensor: Nr:Datum:Temp:Abs-Feuchte:Windchill:Wind:
Aussen-T/F 26 09-05-2010 05:01:02 8 C 6.45 g/m*3 8 C 0 km/h
27 09-05-2010 05:13:02 7.8 C 6.53 g/m*3 7.8 C 0 km/h
28 09-05-2010 05:25:02 7.6 C 6.53 g/m*3 7.6 C 0 km/h
29 09-05-2010 05:37:02 7.4 C 6.52 g/m*3 7.4 C 0 km/h
30 09-05-2010 05:49:02 7.4 C 6.52 g/m*3 7.4 C 0 km/h
31 09-05-2010 06:01:02 7.6 C 6.69 g/m*3 7.6 C 0 km/h
32 09-05-2010 06:13:02 7.9 C 6.82 g/m*3 7.9 C 0 km/h
33 09-05-2010 06:25:02 8 C 6.7 g/m*3 8 C 0 km/h
34 09-05-2010 06:37:02 8.1 C 6.74 g/m*3 8.1 C 0 km/h
35 09-05-2010 06:49:02 8.3 C 6.83 g/m*3 8.3 C 0 km/h
36 09-05-2010 07:01:02 8.5 C 6.92 g/m*3 8.5 C 0 km/h
37 09-05-2010 07:13:02 8.6 C 6.87 g/m*3 8.6 C 0 km/h
38 09-05-2010 07:25:01 8.7 C 6.83 g/m*3 8.7 C 0 km/h
39 09-05-2010 07:37:02 9.1 C 6.92 g/m*3 9.1 C 0 km/h
40 09-05-2010 07:49:02 9.1 C 6.83 g/m*3 9.1 C 0 km/h
41 09-05-2010 08:01:02 9.6 C 6.96 g/m*3 9.6 C 0 km/h
42 09-05-2010 08:13:02 9.6 C 6.96 g/m*3 9.6 C 0 km/h
43 09-05-2010 08:25:02 9.6 C 6.87 g/m*3 9.6 C 0 km/h
44 09-05-2010 08:37:02 10 C 7.05 g/m*3 10 C 0 km/h
45 09-05-2010 08:49:02 10.4 C 7.04 g/m*3 10.4 C 0 km/h
46 09-05-2010 09:01:02 10.8 C 7.02 g/m*3 10.8 C 0 km/h
47 09-05-2010 09:13:02 10.9 C 7.16 g/m*3 10.9 C 0 km/h
48 09-05-2010 09:25:02 11.1 C 6.95 g/m*3 11.1 C 0 km/h
49 09-05-2010 09:37:03 11.7 C 7.11 g/m*3 11.7 C 0 km/h
50 09-05-2010 09:49:02 12 C 6.93 g/m*3 12 C 0 km/h
Sensor: Nr:Datum:Temp:Abs-Feuchte:Windchill:Wind:
Aussen-T/F 51 09-05-2010 10:01:01 12.4 C 6.99 g/m*3 12.4 C 0 km/h
52 09-05-2010 10:13:01 12.7 C 7.12 g/m*3 12.7 C 0 km/h
53 09-05-2010 10:25:01 12.2 C 7.23 g/m*3 12.2 C 0 km/h
54 09-05-2010 10:37:02 12.2 C 7.55 g/m*3 12.2 C 0 km/h
55 09-05-2010 10:49:02 12 C 7.35 g/m*3 12 C 0 km/h
56 09-05-2010 11:01:01 12.2 C 7.55 g/m*3 12.2 C 0 km/h
57 09-05-2010 11:13:01 12.4 C 7.54 g/m*3 12.4 C 0 km/h
58 09-05-2010 11:25:02 12.3 C 7.38 g/m*3 12.3 C 0 km/h
59 09-05-2010 11:37:01 12.3 C 7.28 g/m*3 12.3 C 0 km/h
60 09-05-2010 11:49:02 12.2 C 7.23 g/m*3 12.2 C 0 km/h
61 09-05-2010 12:01:02 12.3 C 7.28 g/m*3 12.3 C 0 km/h
62 09-05-2010 12:13:02 13 C 7.37 g/m*3 13 C 0 km/h
63 09-05-2010 12:25:02 13.4 C 7.21 g/m*3 13.4 C 0 km/h
64 09-05-2010 12:37:02 14 C 7.24 g/m*3 14 C 0 km/h
65 09-05-2010 12:49:02 14.4 C 7.17 g/m*3 14.4 C 0 km/h
66 09-05-2010 13:01:01 15 C 6.92 g/m*3 15 C 0 km/h
67 09-05-2010 13:13:01 16.2 C 7.03 g/m*3 16.2 C 0 km/h
68 09-05-2010 13:25:01 17.2 C 6.59 g/m*3 17.2 C 0 km/h
69 09-05-2010 13:37:02 18.5 C 6.33 g/m*3 18.5 C 0 km/h
70 09-05-2010 13:49:02 18.2 C 6.22 g/m*3 18.2 C 0 km/h
71 09-05-2010 14:01:02 17.9 C 6.11 g/m*3 17.9 C 0 km/h
72 09-05-2010 14:13:02 17.5 C 6.11 g/m*3 17.5 C 0 km/h
73 09-05-2010 14:25:02 16.7 C 6.11 g/m*3 16.7 C 0 km/h
74 09-05-2010 14:37:01 16.7 C 6.11 g/m*3 16.7 C 0 km/h
75 09-05-2010 14:49:02 17 C 6.22 g/m*3 17 C 0 km/h
Sensor: Nr:Datum:Temp:Abs-Feuchte:Windchill:Wind:
Aussen-T/F 76 09-05-2010 15:01:01 17 C 6.22 g/m*3 17 C 0 km/h
77 09-05-2010 15:13:01 17.3 C 6.33 g/m*3 17.3 C 0 km/h
78 09-05-2010 15:25:02 17.6 C 6.3 g/m*3 17.6 C 0 km/h
79 09-05-2010 15:37:01 17.8 C 6.37 g/m*3 17.8 C 0 km/h
80 09-05-2010 15:49:03 17.9 C 6.26 g/m*3 17.9 C 0 km/h
81 09-05-2010 16:01:02 18 C 6.3 g/m*3 18 C 0 km/h
82 09-05-2010 16:13:02 18.7 C 6.4 g/m*3 18.7 C 0 km/h
83 09-05-2010 16:25:02 19.1 C 6.23 g/m*3 19.1 C 0 km/h
84 09-05-2010 16:37:02 18.7 C 6.08 g/m*3 18.7 C 0 km/h
85 09-05-2010 16:49:02 18 C 5.68 g/m*3 18 C 0 km/h
86 09-05-2010 17:01:02 17.8 C 5.77 g/m*3 17.8 C 0 km/h
87 09-05-2010 17:13:02 19.6 C 5.74 g/m*3 19.6 C 0 km/h
88 09-05-2010 17:25:02 19.5 C 5.03 g/m*3 19.5 C 0 km/h
89 09-05-2010 17:37:02 19.1 C 5.41 g/m*3 19.1 C 0 km/h
90 09-05-2010 17:49:02 19.4 C 5.17 g/m*3 19.4 C 0 km/h
91 09-05-2010 18:01:02 19.5 C 5.71 g/m*3 19.5 C 0 km/h
92 09-05-2010 18:13:02 18.9 C 5.67 g/m*3 18.9 C 0 km/h
93 09-05-2010 18:25:03 18.7 C 5.76 g/m*3 18.7 C 0 km/h
94 09-05-2010 18:37:02 18.3 C 5.79 g/m*3 18.3 C 0 km/h
95 09-05-2010 18:49:03 18.1 C 6.03 g/m*3 18.1 C 0 km/h
96 09-05-2010 19:01:02 17.6 C 6.6 g/m*3 17.6 C 0 km/h
97 09-05-2010 19:13:03 17 C 6.8 g/m*3 17 C 0 km/h
98 09-05-2010 19:25:02 17 C 6.95 g/m*3 17 C 0 km/h
99 09-05-2010 19:37:02 16.6 C 6.92 g/m*3 16.6 C 0 km/h
100 09-05-2010 19:49:01 16.2 C 6.9 g/m*3 16.2 C 0 km/h
Sensor: Nr:Datum:Temp:Abs-Feuchte:Windchill:Wind:
Aussen-T/F 101 09-05-2010 20:01:02 15.8 C 7 g/m*3 15.8 C 0 km/h
102 09-05-2010 20:13:02 15.2 C 6.88 g/m*3 15.2 C 0 km/h
103 09-05-2010 20:25:01 14.8 C 6.84 g/m*3 14.8 C 0 km/h
104 09-05-2010 20:37:01 14.3 C 6.88 g/m*3 14.3 C 0 km/h
105 09-05-2010 20:49:01 14 C 6.75 g/m*3 14 C 0 km/h
106 09-05-2010 21:01:02 13.4 C 6.97 g/m*3 13.4 C 0 km/h
107 09-05-2010 21:13:02 12.8 C 7.06 g/m*3 12.8 C 0 km/h
108 09-05-2010 21:25:02 12.5 C 7.15 g/m*3 12.5 C 0 km/h
109 09-05-2010 21:37:02 12.1 C 7.08 g/m*3 12.1 C 0 km/h
110 09-05-2010 21:49:02 11.7 C 7.11 g/m*3 11.7 C 0 km/h
111 09-05-2010 22:01:03 11.5 C 7.13 g/m*3 11.5 C 0 km/h
112 09-05-2010 22:13:03 11.3 C 7.14 g/m*3 11.3 C 0 km/h
113 09-05-2010 22:25:02 11.1 C 7.05 g/m*3 11.1 C 0 km/h
114 09-05-2010 22:38:04 10.9 C 6.96 g/m*3 10.9 C 0 km/h
115 09-05-2010 22:50:04 10.8 C 7.02 g/m*3 10.8 C 0 km/h
116 09-05-2010 23:02:04 10.8 C 7.12 g/m*3 10.8 C 0 km/h
117 09-05-2010 23:14:04 10.9 C 7.06 g/m*3 10.9 C 0 km/h
118 09-05-2010 23:26:05 10.7 C 7.07 g/m*3 10.7 C 0 km/h
119 09-05-2010 23:38:05 10.8 C 7.22 g/m*3 10.8 C 0 km/h
120 09-05-2010 23:50:05 10.5 C 7.08 g/m*3 10.5 C 0 km/h
121 10-05-2010 00:02:05 10.4 C 7.13 g/m*3 10.4 C 0 km/h
122 10-05-2010 00:14:05 10.5 C 7.18 g/m*3 10.5 C 0 km/h
123 10-05-2010 00:26:05 10.3 C 7.09 g/m*3 10.3 C 0 km/h
124 10-05-2010 00:38:05 10.1 C 7.09 g/m*3 10.1 C 0 km/h
125 10-05-2010 00:50:05 9.8 C 7.24 g/m*3 9.8 C 0 km/h
Sensor: Nr:Datum:Temp:Abs-Feuchte:Windchill:Wind:
Aussen-T/F 126 10-05-2010 01:02:05 9.8 C 7.24 g/m*3 9.8 C 0 km/h
127 10-05-2010 01:14:05 9.8 C 7.33 g/m*3 9.8 C 0 km/h
128 10-05-2010 01:26:05 9.9 C 7.38 g/m*3 9.9 C 0 km/h
129 10-05-2010 01:38:05 10 C 7.24 g/m*3 10 C 0 km/h
130 10-05-2010 01:50:05 9.8 C 7.24 g/m*3 9.8 C 0 km/h
131 10-05-2010 02:02:05 9.7 C 7.19 g/m*3 9.7 C 0 km/h
132 10-05-2010 02:14:05 9.5 C 7.19 g/m*3 9.5 C 0 km/h
133 10-05-2010 02:26:05 9.4 C 7.24 g/m*3 9.4 C 0 km/h
134 10-05-2010 02:38:05 9.4 C 7.24 g/m*3 9.4 C 0 km/h
135 10-05-2010 02:50:05 9.4 C 7.33 g/m*3 9.4 C 0 km/h
136 10-05-2010 03:02:05 9.2 C 7.23 g/m*3 9.2 C 0 km/h
137 10-05-2010 03:14:05 9 C 7.14 g/m*3 9 C 0 km/h
138 10-05-2010 03:26:05 8.8 C 7.14 g/m*3 8.8 C 0 km/h
139 10-05-2010 03:38:05 8.7 C 7.18 g/m*3 8.7 C 0 km/h
140 10-05-2010 03:50:06 8.7 C 7.26 g/m*3 8.7 C 0 km/h
141 10-05-2010 04:02:06 8.6 C 7.22 g/m*3 8.6 C 0 km/h
142 10-05-2010 04:14:06 8.6 C 7.22 g/m*3 8.6 C 0 km/h
143 10-05-2010 04:26:06 8.6 C 7.3 g/m*3 8.6 C 0 km/h
144 10-05-2010 04:38:06 8.6 C 7.3 g/m*3 8.6 C 0 km/h
145 10-05-2010 04:50:06 8.7 C 7.26 g/m*3 8.7 C 0 km/h
146 10-05-2010 05:02:06 8.6 C 7.22 g/m*3 8.6 C 0 km/h
147 10-05-2010 05:14:06 8.6 C 7.22 g/m*3 8.6 C 0 km/h
148 10-05-2010 05:26:06 8.6 C 7.3 g/m*3 8.6 C 0 km/h
149 10-05-2010 05:38:06 8.7 C 7.35 g/m*3 8.7 C 0 km/h
150 10-05-2010 05:50:06 8.8 C 7.31 g/m*3 8.8 C 0 km/h
Sensor: Nr:Datum:Temp:Abs-Feuchte:Windchill:Wind:
Aussen-T/F 151 10-05-2010 06:02:06 8.7 C 7.26 g/m*3 8.7 C 0 km/h
152 10-05-2010 06:14:06 8.7 C 7.26 g/m*3 8.7 C 0 km/h
153 10-05-2010 06:26:06 8.8 C 7.31 g/m*3 8.8 C 0 km/h
154 10-05-2010 06:38:04 8.9 C 7.36 g/m*3 8.9 C 0 km/h
155 10-05-2010 06:50:02 9 C 7.32 g/m*3 9 C 0 km/h
156 10-05-2010 07:02:02 9.1 C 7.36 g/m*3 9.1 C 0 km/h
157 10-05-2010 07:14:02 9.4 C 7.51 g/m*3 9.4 C 0 km/h
158 10-05-2010 07:26:01 9.6 C 7.6 g/m*3 9.6 C 0 km/h
159 10-05-2010 07:38:02 9.8 C 7.7 g/m*3 9.8 C 0 km/h
160 10-05-2010 07:50:02 10.2 C 7.71 g/m*3 10.2 C 0 km/h
161 10-05-2010 08:02:02 10.5 C 7.76 g/m*3 10.5 C 0 km/h
162 10-05-2010 08:14:02 10.6 C 7.71 g/m*3 10.6 C 0 km/h
163 10-05-2010 08:26:02 10.7 C 7.66 g/m*3 10.7 C 0 km/h
164 10-05-2010 08:38:02 10.7 C 7.46 g/m*3 10.7 C 0 km/h
165 10-05-2010 08:50:02 10.7 C 7.37 g/m*3 10.7 C 0 km/h
166 10-05-2010 09:02:02 10.8 C 7.41 g/m*3 10.8 C 0 km/h
167 10-05-2010 09:14:03 10.8 C 7.22 g/m*3 10.8 C 0 km/h
168 10-05-2010 09:26:02 10.7 C 7.27 g/m*3 10.7 C 0 km/h
169 10-05-2010 09:38:02 11 C 7.21 g/m*3 11 C 0 km/h
170 10-05-2010 09:50:02 11.1 C 7.25 g/m*3 11.1 C 0 km/h
171 10-05-2010 10:02:02 11.1 C 7.15 g/m*3 11.1 C 0 km/h
172 10-05-2010 10:14:02 11.4 C 7.08 g/m*3 11.4 C 0 km/h
173 10-05-2010 10:26:03 11.2 C 7.1 g/m*3 11.2 C 0 km/h
174 10-05-2010 10:38:02 11.6 C 7.17 g/m*3 11.6 C 0 km/h
175 10-05-2010 10:50:02 11.4 C 6.98 g/m*3 11.4 C 0 km/h
Sensor: Nr:Datum:Temp:Abs-Feuchte:Windchill:Wind:
Aussen-T/F 176 10-05-2010 11:02:02 11.5 C 7.13 g/m*3 11.5 C 0 km/h
177 10-05-2010 11:14:02 11.5 C 7.02 g/m*3 11.5 C 0 km/h
178 10-05-2010 11:26:02 11.5 C 7.02 g/m*3 11.5 C 0 km/h
179 10-05-2010 11:38:02 11.3 C 7.04 g/m*3 11.3 C 0 km/h
180 10-05-2010 11:50:02 11.7 C 7.22 g/m*3 11.7 C 0 km/h
181 10-05-2010 12:02:03 11.7 C 7.11 g/m*3 11.7 C 0 km/h
182 10-05-2010 12:14:03 11.6 C 6.96 g/m*3 11.6 C 0 km/h
183 10-05-2010 12:26:02 12.7 C 7.01 g/m*3 12.7 C 0 km/h
184 10-05-2010 12:38:03 12.9 C 6.76 g/m*3 12.9 C 0 km/h
185 10-05-2010 12:50:02 14.1 C 6.8 g/m*3 14.1 C 0 km/h
186 10-05-2010 13:02:02 13.5 C 6.43 g/m*3 13.5 C 0 km/h
187 10-05-2010 13:14:02 13.5 C 6.43 g/m*3 13.5 C 0 km/h
188 10-05-2010 13:26:01 14.7 C 6.17 g/m*3 14.7 C 0 km/h
189 10-05-2010 13:38:02 15.3 C 6.4 g/m*3 15.3 C 0 km/h
190 10-05-2010 13:50:02 15.4 C 6.18 g/m*3 15.4 C 0 km/h
191 10-05-2010 14:02:02 15.3 C 6.01 g/m*3 15.3 C 0 km/h
192 10-05-2010 14:14:02 15.5 C 6.08 g/m*3 15.5 C 0 km/h
193 10-05-2010 14:26:02 14.8 C 5.95 g/m*3 14.8 C 0 km/h
194 10-05-2010 14:38:02 14.7 C 5.92 g/m*3 14.7 C 0 km/h
195 10-05-2010 14:50:02 14.7 C 5.92 g/m*3 14.7 C 0 km/h
196 10-05-2010 15:02:02 15 C 5.77 g/m*3 15 C 0 km/h
197 10-05-2010 15:14:02 15.4 C 5.78 g/m*3 15.4 C 0 km/h
198 10-05-2010 15:26:02 15.1 C 5.93 g/m*3 15.1 C 0 km/h
199 10-05-2010 15:38:02 15.3 C 5.62 g/m*3 15.3 C 0 km/h
200 10-05-2010 15:50:02 14.7 C 5.79 g/m*3 14.7 C 0 km/h
Sensor: Nr:Datum:Temp:Abs-Feuchte:Windchill:Wind:
Aussen-T/F 201 10-05-2010 16:02:02 15.2 C 5.84 g/m*3 15.2 C 0 km/h
202 10-05-2010 16:14:02 15.8 C 5.79 g/m*3 15.8 C 0 km/h
203 10-05-2010 16:26:02 15.7 C 5.49 g/m*3 15.7 C 0 km/h
204 10-05-2010 16:38:02 16.2 C 5.52 g/m*3 16.2 C 0 km/h
205 10-05-2010 16:50:02 16.3 C 5.13 g/m*3 16.3 C 0 km/h
206 10-05-2010 17:02:02 15.5 C 5.42 g/m*3 15.5 C 0 km/h
207 10-05-2010 17:14:02 15.6 C 5.45 g/m*3 15.6 C 0 km/h
208 10-05-2010 17:26:02 16 C 5.31 g/m*3 16 C 0 km/h
209 10-05-2010 17:38:02 16 C 5.31 g/m*3 16 C 0 km/h
210 10-05-2010 17:50:01 15.8 C 5.38 g/m*3 15.8 C 0 km/h
211 10-05-2010 18:02:02 16.4 C 5.02 g/m*3 16.4 C 0 km/h
212 10-05-2010 18:14:02 17.3 C 5.01 g/m*3 17.3 C 0 km/h
213 10-05-2010 18:26:02 17.6 C 5.1 g/m*3 17.6 C 0 km/h
214 10-05-2010 18:38:01 17.1 C 4.66 g/m*3 17.1 C 0 km/h
215 10-05-2010 18:50:02 15.8 C 4.71 g/m*3 15.8 C 0 km/h
216 10-05-2010 19:02:01 15.4 C 4.73 g/m*3 15.4 C 0 km/h
217 10-05-2010 19:14:01 15.6 C 4.92 g/m*3 15.6 C 0 km/h
218 10-05-2010 19:26:02 14.9 C 4.97 g/m*3 14.9 C 0 km/h
219 10-05-2010 19:38:01 14.7 C 5.04 g/m*3 14.7 C 0 km/h
220 10-05-2010 19:50:02 14.5 C 5.1 g/m*3 14.5 C 0 km/h
221 10-05-2010 20:02:01 14.5 C 4.97 g/m*3 14.5 C 0 km/h
222 10-05-2010 20:14:01 14.5 C 4.97 g/m*3 14.5 C 0 km/h
223 10-05-2010 20:26:02 14.3 C 5.04 g/m*3 14.3 C 0 km/h
224 10-05-2010 20:38:01 13.7 C 5.09 g/m*3 13.7 C 0 km/h
225 10-05-2010 20:50:02 13.1 C 5.14 g/m*3 13.1 C 0 km/h
Sensor: Nr:Datum:Temp:Abs-Feuchte:Windchill:Wind:
Aussen-T/F 226 10-05-2010 21:02:02 12.8 C 5.38 g/m*3 12.8 C 0 km/h
227 10-05-2010 21:14:02 12.3 C 5.43 g/m*3 12.3 C 0 km/h
228 10-05-2010 21:26:02 11.9 C 5.51 g/m*3 11.9 C 0 km/h
229 10-05-2010 21:38:02 11.6 C 5.4 g/m*3 11.6 C 0 km/h
230 10-05-2010 21:50:02 11.5 C 5.58 g/m*3 11.5 C 0 km/h
231 10-05-2010 22:02:02 11.5 C 5.68 g/m*3 11.5 C 0 km/h
232 10-05-2010 22:14:02 11.5 C 5.58 g/m*3 11.5 C 0 km/h
233 10-05-2010 22:27:04 11.2 C 5.57 g/m*3 11.2 C 0 km/h
234 10-05-2010 22:39:04 11.1 C 5.54 g/m*3 11.1 C 0 km/h
235 10-05-2010 22:51:04 11.8 C 5.79 g/m*3 11.8 C 0 km/h
236 10-05-2010 23:03:04 11.6 C 5.92 g/m*3 11.6 C 0 km/h
237 10-05-2010 23:15:05 11.2 C 5.68 g/m*3 11.2 C 0 km/h
238 10-05-2010 23:27:05 11.3 C 5.81 g/m*3 11.3 C 0 km/h
239 10-05-2010 23:39:05 11.4 C 5.85 g/m*3 11.4 C 0 km/h
240 10-05-2010 23:51:05 11.2 C 5.78 g/m*3 11.2 C 0 km/h
241 11-05-2010 00:03:05 11 C 5.71 g/m*3 11 C 0 km/h
242 11-05-2010 00:15:05 11.1 C 5.74 g/m*3 11.1 C 0 km/h
243 11-05-2010 00:27:05 10.7 C 5.7 g/m*3 10.7 C 0 km/h
244 11-05-2010 00:39:05 10.8 C 5.83 g/m*3 10.8 C 0 km/h
245 11-05-2010 00:51:05 10.8 C 5.83 g/m*3 10.8 C 0 km/h
246 11-05-2010 01:03:05 10.4 C 5.88 g/m*3 10.4 C 0 km/h
247 11-05-2010 01:15:05 10.5 C 5.82 g/m*3 10.5 C 0 km/h
248 11-05-2010 01:27:05 10.5 C 5.92 g/m*3 10.5 C 0 km/h
249 11-05-2010 01:39:05 10.4 C 5.98 g/m*3 10.4 C 0 km/h
250 11-05-2010 01:51:05 10.3 C 6.03 g/m*3 10.3 C 0 km/h
Sensor: Nr:Datum:Temp:Abs-Feuchte:Windchill:Wind:
Aussen-T/F 251 11-05-2010 02:03:05 10.1 C 5.96 g/m*3 10.1 C 0 km/h
252 11-05-2010 02:15:05 10 C 6.01 g/m*3 10 C 0 km/h
253 11-05-2010 02:27:05 10.1 C 6.05 g/m*3 10.1 C 0 km/h
254 11-05-2010 02:39:05 10.1 C 6.05 g/m*3 10.1 C 0 km/h
255 11-05-2010 02:51:05 10.2 C 6.09 g/m*3 10.2 C 0 km/h
256 11-05-2010 03:03:05 10 C 6.11 g/m*3 10 C 0 km/h
257 11-05-2010 03:15:05 9.7 C 5.99 g/m*3 9.7 C 0 km/h
258 11-05-2010 03:27:05 9.9 C 6.07 g/m*3 9.9 C 0 km/h
259 11-05-2010 03:39:06 9.7 C 6.27 g/m*3 9.7 C 0 km/h
260 11-05-2010 03:51:06 9.6 C 6.32 g/m*3 9.6 C 0 km/h
261 11-05-2010 04:03:06 9.7 C 6.45 g/m*3 9.7 C 0 km/h
262 11-05-2010 04:15:06 9.5 C 6.1 g/m*3 9.5 C 0 km/h
263 11-05-2010 04:27:06 9.4 C 6.06 g/m*3 9.4 C 0 km/h
264 11-05-2010 04:39:06 9.3 C 6.02 g/m*3 9.3 C 0 km/h
265 11-05-2010 04:51:06 9.4 C 6.15 g/m*3 9.4 C 0 km/h
266 11-05-2010 05:03:06 9.4 C 6.15 g/m*3 9.4 C 0 km/h
267 11-05-2010 05:15:06 9.3 C 6.11 g/m*3 9.3 C 0 km/h
268 11-05-2010 05:27:06 9.5 C 6.19 g/m*3 9.5 C 0 km/h
269 11-05-2010 05:39:06 9.4 C 6.15 g/m*3 9.4 C 0 km/h
270 11-05-2010 05:51:06 9.3 C 6.2 g/m*3 9.3 C 0 km/h
271 11-05-2010 06:03:06 9.4 C 6.24 g/m*3 9.4 C 0 km/h
272 11-05-2010 06:15:06 9.3 C 6.11 g/m*3 9.3 C 0 km/h
273 11-05-2010 06:27:06 9.3 C 6.2 g/m*3 9.3 C 0 km/h
274 11-05-2010 06:39:06 9.1 C 6.12 g/m*3 9.1 C 0 km/h
275 11-05-2010 06:51:02 9.1 C 6.12 g/m*3 9.1 C 0 km/h
Sensor: Nr:Datum:Temp:Abs-Feuchte:Windchill:Wind:
Aussen-T/F 276 11-05-2010 07:03:01 9.3 C 6.29 g/m*3 9.3 C 0 km/h
277 11-05-2010 07:15:02 9.5 C 6.37 g/m*3 9.5 C 0 km/h
278 11-05-2010 07:27:02 9.6 C 6.32 g/m*3 9.6 C 0 km/h
279 11-05-2010 07:39:02 9.7 C 6.27 g/m*3 9.7 C 0 km/h
280 11-05-2010 07:51:01 9.9 C 6.35 g/m*3 9.9 C 0 km/h
281 11-05-2010 08:03:02 10.1 C 6.24 g/m*3 10.1 C 0 km/h
282 11-05-2010 08:15:01 10.5 C 6.3 g/m*3 10.5 C 0 km/h
283 11-05-2010 08:27:01 10.7 C 6.19 g/m*3 10.7 C 0 km/h
284 11-05-2010 08:39:01 11.2 C 6.28 g/m*3 11.2 C 0 km/h
285 11-05-2010 08:51:01 12 C 6.29 g/m*3 12 C 0 km/h
286 11-05-2010 09:03:02 11.7 C 6.07 g/m*3 11.7 C 0 km/h
287 11-05-2010 09:15:01 11.7 C 6.07 g/m*3 11.7 C 0 km/h
288 11-05-2010 09:27:01 11.9 C 6.14 g/m*3 11.9 C 0 km/h
289 11-05-2010 09:39:02 12.8 C 6.05 g/m*3 12.8 C 0 km/h
290 11-05-2010 09:51:01 12.7 C 5.79 g/m*3 12.7 C 0 km/h
291 11-05-2010 10:03:02 12.8 C 6.16 g/m*3 12.8 C 0 km/h
292 11-05-2010 10:15:02 13 C 6.01 g/m*3 13 C 0 km/h
293 11-05-2010 10:27:02 13 C 5.9 g/m*3 13 C 0 km/h
294 11-05-2010 10:39:01 12.3 C 5.97 g/m*3 12.3 C 0 km/h
295 11-05-2010 10:51:01 11.8 C 6.21 g/m*3 11.8 C 0 km/h
296 11-05-2010 11:03:01 12 C 6.07 g/m*3 12 C 0 km/h
297 11-05-2010 11:15:02 12 C 6.07 g/m*3 12 C 0 km/h
298 11-05-2010 11:27:02 12 C 6.18 g/m*3 12 C 0 km/h
299 11-05-2010 11:39:02 12.5 C 6.38 g/m*3 12.5 C 0 km/h
300 11-05-2010 11:51:02 14.1 C 6.19 g/m*3 14.1 C 0 km/h
Sensor: Nr:Datum:Temp:Abs-Feuchte:Windchill:Wind:
Aussen-T/F 301 11-05-2010 12:03:02 14.1 C 5.95 g/m*3 14.1 C 0 km/h
302 11-05-2010 12:15:02 13.7 C 6.28 g/m*3 13.7 C 0 km/h
303 11-05-2010 12:27:02 14.8 C 6.33 g/m*3 14.8 C 0 km/h
304 11-05-2010 12:39:01 14.1 C 5.95 g/m*3 14.1 C 0 km/h
305 11-05-2010 12:51:02 14.3 C 6.27 g/m*3 14.3 C 0 km/h
306 11-05-2010 13:03:01 13.4 C 6.16 g/m*3 13.4 C 0 km/h
307 11-05-2010 13:15:01 13.7 C 6.39 g/m*3 13.7 C 0 km/h
308 11-05-2010 13:27:01 14.2 C 6.23 g/m*3 14.2 C 0 km/h
309 11-05-2010 13:39:01 14.1 C 6.19 g/m*3 14.1 C 0 km/h
310 11-05-2010 13:51:02 13.3 C 6.35 g/m*3 13.3 C 0 km/h
311 11-05-2010 14:03:01 14.1 C 6.43 g/m*3 14.1 C 0 km/h
312 11-05-2010 14:15:01 14 C 6.27 g/m*3 14 C 0 km/h
313 11-05-2010 14:27:01 14.1 C 6.43 g/m*3 14.1 C 0 km/h
314 11-05-2010 14:39:02 14 C 6.39 g/m*3 14 C 0 km/h
315 11-05-2010 14:51:02 14 C 6.51 g/m*3 14 C 0 km/h
316 11-05-2010 15:03:02 14.4 C 6.55 g/m*3 14.4 C 0 km/h
317 11-05-2010 15:15:02 14.1 C 6.31 g/m*3 14.1 C 0 km/h
318 11-05-2010 15:27:02 14.7 C 6.55 g/m*3 14.7 C 0 km/h
319 11-05-2010 15:39:02 14.5 C 6.34 g/m*3 14.5 C 0 km/h
320 11-05-2010 15:51:02 14.3 C 6.39 g/m*3 14.3 C 0 km/h
321 11-05-2010 16:03:03 14.3 C 6.51 g/m*3 14.3 C 0 km/h
322 11-05-2010 16:15:02 14.8 C 6.71 g/m*3 14.8 C 0 km/h
323 11-05-2010 16:27:02 15.6 C 6.65 g/m*3 15.6 C 0 km/h
324 11-05-2010 16:39:03 15.9 C 6.5 g/m*3 15.9 C 0 km/h
325 11-05-2010 16:51:01 15.6 C 6.52 g/m*3 15.6 C 0 km/h
Sensor: Nr:Datum:Temp:Abs-Feuchte:Windchill:Wind:
Aussen-T/F 326 11-05-2010 17:03:02 14.9 C 6.75 g/m*3 14.9 C 0 km/h
327 11-05-2010 17:15:01 15.1 C 6.58 g/m*3 15.1 C 0 km/h
328 11-05-2010 17:27:01 14.7 C 6.8 g/m*3 14.7 C 0 km/h
329 11-05-2010 17:39:02 14.8 C 6.71 g/m*3 14.8 C 0 km/h
330 11-05-2010 17:51:01 14.7 C 6.8 g/m*3 14.7 C 0 km/h
331 11-05-2010 18:03:02 14.5 C 6.96 g/m*3 14.5 C 0 km/h
332 11-05-2010 18:15:02 13.9 C 7.07 g/m*3 13.9 C 0 km/h
333 11-05-2010 18:27:02 12.5 C 7.48 g/m*3 12.5 C 0 km/h
334 11-05-2010 18:39:02 11.9 C 8.05 g/m*3 11.9 C 0 km/h
335 11-05-2010 18:51:01 11.6 C 8.21 g/m*3 11.6 C 0 km/h
336 11-05-2010 19:03:02 11.3 C 8.16 g/m*3 11.3 C 0 km/h
337 11-05-2010 19:15:02 11.1 C 8.36 g/m*3 11.1 C 0 km/h
338 11-05-2010 19:27:02 10.9 C 8.36 g/m*3 10.9 C 0 km/h
339 11-05-2010 19:39:02 10.8 C 8.3 g/m*3 10.8 C 0 km/h
340 11-05-2010 19:51:01 10.6 C 8.39 g/m*3 10.6 C 0 km/h
341 11-05-2010 20:03:02 10.5 C 8.44 g/m*3 10.5 C 0 km/h
342 11-05-2010 20:15:02 10.2 C 8.37 g/m*3 10.2 C 0 km/h
343 11-05-2010 20:27:02 10.1 C 8.42 g/m*3 10.1 C 0 km/h
344 11-05-2010 20:39:02 10 C 8.46 g/m*3 10 C 0 km/h
345 11-05-2010 20:51:02 9.8 C 8.54 g/m*3 9.8 C 0 km/h
346 11-05-2010 21:03:01 9.8 C 8.54 g/m*3 9.8 C 0 km/h
347 11-05-2010 21:15:02 9.9 C 8.59 g/m*3 9.9 C 0 km/h
348 11-05-2010 21:27:03 10 C 8.64 g/m*3 10 C 0 km/h
349 11-05-2010 21:39:01 9.8 C 8.63 g/m*3 9.8 C 0 km/h
350 11-05-2010 21:51:02 9.8 C 8.63 g/m*3 9.8 C 0 km/h
Sensor: Nr:Datum:Temp:Abs-Feuchte:Windchill:Wind:
Aussen-T/F 351 11-05-2010 22:03:02 9.7 C 8.57 g/m*3 9.7 C 0 km/h
352 11-05-2010 22:15:01 9.6 C 8.52 g/m*3 9.6 C 0 km/h
353 11-05-2010 22:27:01 9.8 C 8.72 g/m*3 9.8 C 0 km/h
354 11-05-2010 22:40:03 9.6 C 8.61 g/m*3 9.6 C 0 km/h
355 11-05-2010 22:52:03 9.7 C 8.67 g/m*3 9.7 C 0 km/h
356 11-05-2010 23:04:03 9.8 C 8.72 g/m*3 9.8 C 0 km/h
357 11-05-2010 23:16:03 9.8 C 8.72 g/m*3 9.8 C 0 km/h
358 11-05-2010 23:28:03 9.8 C 8.72 g/m*3 9.8 C 0 km/h
359 11-05-2010 23:40:03 9.9 C 8.78 g/m*3 9.9 C 0 km/h
360 11-05-2010 23:52:03 9.7 C 8.67 g/m*3 9.7 C 0 km/h
361 12-05-2010 00:04:03 9.7 C 8.67 g/m*3 9.7 C 0 km/h
362 12-05-2010 00:16:03 9.6 C 8.61 g/m*3 9.6 C 0 km/h
363 12-05-2010 00:28:03 9.1 C 8.34 g/m*3 9.1 C 0 km/h
364 12-05-2010 00:40:03 9.1 C 8.34 g/m*3 9.1 C 0 km/h
365 12-05-2010 00:52:03 9.1 C 8.34 g/m*3 9.1 C 0 km/h
366 12-05-2010 01:04:03 9.1 C 8.34 g/m*3 9.1 C 0 km/h
367 12-05-2010 01:16:03 8.8 C 8.27 g/m*3 8.8 C 0 km/h
368 12-05-2010 01:28:04 8.5 C 8.03 g/m*3 8.5 C 0 km/h
369 12-05-2010 01:40:04 8.4 C 7.97 g/m*3 8.4 C 0 km/h
370 12-05-2010 01:52:04 7.8 C 7.75 g/m*3 7.8 C 0 km/h
371 12-05-2010 02:04:04 7.5 C 7.52 g/m*3 7.5 C 0 km/h
372 12-05-2010 02:16:04 7.8 C 7.75 g/m*3 7.8 C 0 km/h
373 12-05-2010 02:28:04 7.9 C 7.8 g/m*3 7.9 C 0 km/h
374 12-05-2010 02:40:04 7.9 C 7.8 g/m*3 7.9 C 0 km/h
375 12-05-2010 02:52:04 7.5 C 7.6 g/m*3 7.5 C 0 km/h
Sensor: Nr:Datum:Temp:Abs-Feuchte:Windchill:Wind:
Aussen-T/F 376 12-05-2010 03:04:04 7.3 C 7.43 g/m*3 7.3 C 0 km/h
377 12-05-2010 03:16:04 7.2 C 7.38 g/m*3 7.2 C 0 km/h
378 12-05-2010 03:28:04 7.1 C 7.33 g/m*3 7.1 C 0 km/h
379 12-05-2010 03:40:04 7 C 7.28 g/m*3 7 C 0 km/h
380 12-05-2010 03:52:04 7 C 7.21 g/m*3 7 C 0 km/h
381 12-05-2010 04:04:04 6.9 C 7.16 g/m*3 6.9 C 0 km/h
382 12-05-2010 04:16:04 6.9 C 7.08 g/m*3 6.9 C 0 km/h
383 12-05-2010 04:28:04 6.9 C 7.01 g/m*3 6.9 C 0 km/h
384 12-05-2010 04:40:04 6.9 C 6.93 g/m*3 6.9 C 0 km/h
385 12-05-2010 04:52:04 6.8 C 6.81 g/m*3 6.8 C 0 km/h
386 12-05-2010 05:04:04 6.8 C 6.73 g/m*3 6.8 C 0 km/h
387 12-05-2010 05:16:04 6.8 C 6.65 g/m*3 6.8 C 0 km/h
388 12-05-2010 05:28:04 6.8 C 6.65 g/m*3 6.8 C 0 km/h
389 12-05-2010 05:40:05 6.8 C 6.65 g/m*3 6.8 C 0 km/h
390 12-05-2010 05:52:05 6.8 C 6.65 g/m*3 6.8 C 0 km/h
391 12-05-2010 06:04:05 6.7 C 6.61 g/m*3 6.7 C 0 km/h
392 12-05-2010 06:16:05 6.8 C 6.58 g/m*3 6.8 C 0 km/h
393 12-05-2010 06:28:05 6.8 C 6.5 g/m*3 6.8 C 0 km/h
394 12-05-2010 06:40:05 6.8 C 6.58 g/m*3 6.8 C 0 km/h
395 12-05-2010 06:52:05 6.8 C 6.58 g/m*3 6.8 C 0 km/h
396 12-05-2010 07:04:03 6.9 C 6.54 g/m*3 6.9 C 0 km/h
397 12-05-2010 07:16:03 7 C 6.59 g/m*3 7 C 0 km/h
398 12-05-2010 07:28:03 7.1 C 6.71 g/m*3 7.1 C 0 km/h
399 12-05-2010 07:40:03 7.2 C 6.67 g/m*3 7.2 C 0 km/h
400 12-05-2010 07:52:02 7.2 C 6.59 g/m*3 7.2 C 0 km/h
Sensor: Nr:Datum:Temp:Abs-Feuchte:Windchill:Wind:
Aussen-T/F 401 12-05-2010 08:04:02 7.3 C 6.56 g/m*3 7.3 C 0 km/h
402 12-05-2010 08:16:02 7.6 C 6.69 g/m*3 7.6 C 0 km/h
403 12-05-2010 08:28:02 7.7 C 6.57 g/m*3 7.7 C 0 km/h
404 12-05-2010 08:40:02 7.8 C 6.45 g/m*3 7.8 C 0 km/h
405 12-05-2010 08:52:01 7.8 C 6.45 g/m*3 7.8 C 0 km/h
406 12-05-2010 09:04:02 8 C 6.37 g/m*3 8 C 0 km/h
407 12-05-2010 09:16:01 8.3 C 6.41 g/m*3 8.3 C 0 km/h
408 12-05-2010 09:28:01 8.4 C 6.19 g/m*3 8.4 C 0 km/h
409 12-05-2010 09:40:01 8.3 C 6.07 g/m*3 8.3 C 0 km/h
410 12-05-2010 09:52:01 8.4 C 6.11 g/m*3 8.4 C 0 km/h
411 12-05-2010 10:04:02 8.4 C 6.02 g/m*3 8.4 C 0 km/h
412 12-05-2010 10:16:01 8.6 C 6.1 g/m*3 8.6 C 0 km/h
413 12-05-2010 10:28:01 8.6 C 6.02 g/m*3 8.6 C 0 km/h
414 12-05-2010 10:40:01 8.7 C 5.97 g/m*3 8.7 C 0 km/h
415 12-05-2010 10:52:01 8.7 C 5.79 g/m*3 8.7 C 0 km/h
416 12-05-2010 11:04:01 8.7 C 5.79 g/m*3 8.7 C 0 km/h
417 12-05-2010 11:16:02 8.9 C 5.87 g/m*3 8.9 C 0 km/h
418 12-05-2010 11:28:02 8.9 C 5.61 g/m*3 8.9 C 0 km/h
419 12-05-2010 11:40:01 9.3 C 5.57 g/m*3 9.3 C 0 km/h
420 12-05-2010 11:52:01 10.1 C 5.67 g/m*3 10.1 C 0 km/h
421 12-05-2010 12:04:01 10 C 5.54 g/m*3 10 C 0 km/h
422 12-05-2010 12:16:02 9.7 C 5.35 g/m*3 9.7 C 0 km/h
423 12-05-2010 12:28:02 9.9 C 5.51 g/m*3 9.9 C 0 km/h
424 12-05-2010 12:40:01 10.5 C 5.33 g/m*3 10.5 C 0 km/h
425 12-05-2010 12:52:03 10.2 C 5.42 g/m*3 10.2 C 0 km/h
Sensor: Nr:Datum:Temp:Abs-Feuchte:Windchill:Wind:
Aussen-T/F 426 12-05-2010 13:04:02 10.5 C 5.43 g/m*3 10.5 C 0 km/h
427 12-05-2010 13:16:02 11.1 C 5.34 g/m*3 11.1 C 0 km/h
428 12-05-2010 13:28:02 10.7 C 5.3 g/m*3 10.7 C 0 km/h
429 12-05-2010 13:40:02 10.4 C 5.2 g/m*3 10.4 C 0 km/h
430 12-05-2010 13:52:02 10.7 C 5.21 g/m*3 10.7 C 0 km/h
431 12-05-2010 14:04:02 10.2 C 5.23 g/m*3 10.2 C 0 km/h
432 12-05-2010 14:16:02 10.2 C 5.23 g/m*3 10.2 C 0 km/h
433 12-05-2010 14:28:02 10.6 C 5.17 g/m*3 10.6 C 0 km/h
434 12-05-2010 14:40:01 10.9 C 5.17 g/m*3 10.9 C 0 km/h
435 12-05-2010 14:52:02 10.7 C 4.81 g/m*3 10.7 C 0 km/h
436 12-05-2010 15:04:01 11.1 C 5.14 g/m*3 11.1 C 0 km/h
437 12-05-2010 15:16:02 10.8 C 4.94 g/m*3 10.8 C 0 km/h
438 12-05-2010 15:28:02 10.8 C 4.84 g/m*3 10.8 C 0 km/h
439 12-05-2010 15:40:02 10.8 C 5.04 g/m*3 10.8 C 0 km/h
440 12-05-2010 15:52:02 10.7 C 5.11 g/m*3 10.7 C 0 km/h
441 12-05-2010 16:04:02 10.8 C 5.24 g/m*3 10.8 C 0 km/h
442 12-05-2010 16:16:02 10.9 C 5.17 g/m*3 10.9 C 0 km/h
443 12-05-2010 16:28:02 10.7 C 5.3 g/m*3 10.7 C 0 km/h
444 12-05-2010 16:40:02 10.3 C 5.17 g/m*3 10.3 C 0 km/h
445 12-05-2010 16:52:01 9.9 C 5.32 g/m*3 9.9 C 0 km/h
446 12-05-2010 17:04:02 9.6 C 5.22 g/m*3 9.6 C 0 km/h
447 12-05-2010 17:16:01 9.7 C 5.35 g/m*3 9.7 C 0 km/h
448 12-05-2010 17:28:01 9.9 C 5.32 g/m*3 9.9 C 0 km/h
449 12-05-2010 17:40:02 9.9 C 5.32 g/m*3 9.9 C 0 km/h
450 12-05-2010 17:52:02 9.6 C 5.22 g/m*3 9.6 C 0 km/h
Sensor: Nr:Datum:Temp:Abs-Feuchte:Windchill:Wind:
Aussen-T/F 451 12-05-2010 18:04:02 9.6 C 5.4 g/m*3 9.6 C 0 km/h
452 12-05-2010 18:16:01 9.3 C 5.39 g/m*3 9.3 C 0 km/h
453 12-05-2010 18:28:01 9.1 C 5.41 g/m*3 9.1 C 0 km/h
454 12-05-2010 18:40:02 9.1 C 5.5 g/m*3 9.1 C 0 km/h
455 12-05-2010 18:52:02 9 C 5.55 g/m*3 9 C 0 km/h
456 12-05-2010 19:04:02 9 C 5.64 g/m*3 9 C 0 km/h
457 12-05-2010 19:16:01 8.8 C 5.66 g/m*3 8.8 C 0 km/h
458 12-05-2010 19:28:01 9 C 5.73 g/m*3 9 C 0 km/h
459 12-05-2010 19:40:02 9 C 5.73 g/m*3 9 C 0 km/h
460 12-05-2010 19:52:02 8.7 C 5.71 g/m*3 8.7 C 0 km/h
461 12-05-2010 20:04:02 8.6 C 5.76 g/m*3 8.6 C 0 km/h
462 12-05-2010 20:16:02 8.6 C 5.84 g/m*3 8.6 C 0 km/h
463 12-05-2010 20:28:02 8.6 C 5.84 g/m*3 8.6 C 0 km/h
464 12-05-2010 20:40:02 8.5 C 5.81 g/m*3 8.5 C 0 km/h
465 12-05-2010 20:52:02 8.5 C 5.98 g/m*3 8.5 C 0 km/h
466 12-05-2010 21:04:02 8.5 C 5.89 g/m*3 8.5 C 0 km/h
467 12-05-2010 21:16:02 8.4 C 5.94 g/m*3 8.4 C 0 km/h
468 12-05-2010 21:28:02 8.5 C 6.06 g/m*3 8.5 C 0 km/h
469 12-05-2010 21:40:01 8.5 C 6.06 g/m*3 8.5 C 0 km/h
470 12-05-2010 21:52:02 8.3 C 6.07 g/m*3 8.3 C 0 km/h
471 12-05-2010 22:04:01 8 C 6.2 g/m*3 8 C 0 km/h
472 12-05-2010 22:17:03 8 C 6.37 g/m*3 8 C 0 km/h
473 12-05-2010 22:29:03 7.6 C 6.36 g/m*3 7.6 C 0 km/h
474 12-05-2010 22:41:03 7.5 C 6.48 g/m*3 7.5 C 0 km/h
475 12-05-2010 22:53:03 7.7 C 6.65 g/m*3 7.7 C 0 km/h
Sensor: Nr:Datum:Temp:Abs-Feuchte:Windchill:Wind:
Aussen-T/F 476 12-05-2010 23:05:03 7.8 C 6.69 g/m*3 7.8 C 0 km/h
477 12-05-2010 23:17:03 7.8 C 6.69 g/m*3 7.8 C 0 km/h
478 12-05-2010 23:29:03 7.8 C 6.69 g/m*3 7.8 C 0 km/h
479 12-05-2010 23:41:04 7.9 C 6.74 g/m*3 7.9 C 0 km/h
480 12-05-2010 23:53:04 7.7 C 6.57 g/m*3 7.7 C 0 km/h
481 13-05-2010 00:05:04 7.7 C 6.57 g/m*3 7.7 C 0 km/h
482 13-05-2010 00:17:04 7.6 C 6.53 g/m*3 7.6 C 0 km/h
483 13-05-2010 00:29:04 7.5 C 6.4 g/m*3 7.5 C 0 km/h
484 13-05-2010 00:41:04 7.6 C 6.44 g/m*3 7.6 C 0 km/h
485 13-05-2010 00:53:04 7.5 C 6.4 g/m*3 7.5 C 0 km/h
486 13-05-2010 01:05:04 7.4 C 6.36 g/m*3 7.4 C 0 km/h
487 13-05-2010 01:17:04 7.3 C 6.48 g/m*3 7.3 C 0 km/h
488 13-05-2010 01:29:04 7.3 C 6.48 g/m*3 7.3 C 0 km/h
489 13-05-2010 01:41:04 7.3 C 6.56 g/m*3 7.3 C 0 km/h
490 13-05-2010 01:53:04 7.4 C 6.68 g/m*3 7.4 C 0 km/h
491 13-05-2010 02:05:04 7.5 C 6.72 g/m*3 7.5 C 0 km/h
492 13-05-2010 02:17:04 7.4 C 6.6 g/m*3 7.4 C 0 km/h
493 13-05-2010 02:29:04 7.4 C 6.52 g/m*3 7.4 C 0 km/h
494 13-05-2010 02:41:04 7.4 C 6.52 g/m*3 7.4 C 0 km/h
495 13-05-2010 02:53:04 7.4 C 6.52 g/m*3 7.4 C 0 km/h
496 13-05-2010 03:05:04 7.4 C 6.52 g/m*3 7.4 C 0 km/h
497 13-05-2010 03:17:04 7.4 C 6.52 g/m*3 7.4 C 0 km/h
498 13-05-2010 03:29:04 7.3 C 6.48 g/m*3 7.3 C 0 km/h
499 13-05-2010 03:41:05 7.3 C 6.56 g/m*3 7.3 C 0 km/h
500 13-05-2010 03:53:05 7.1 C 6.47 g/m*3 7.1 C 0 km/h
Sensor: Nr:Datum:Temp:Abs-Feuchte:Windchill:Wind:
Aussen-T/F 501 13-05-2010 04:05:05 6.9 C 6.54 g/m*3 6.9 C 0 km/h
502 13-05-2010 04:17:05 7 C 6.51 g/m*3 7 C 0 km/h
503 13-05-2010 04:29:05 7.1 C 6.63 g/m*3 7.1 C 0 km/h
504 13-05-2010 04:41:05 7.1 C 6.63 g/m*3 7.1 C 0 km/h
505 13-05-2010 04:53:05 6.9 C 6.62 g/m*3 6.9 C 0 km/h
506 13-05-2010 05:05:05 6.9 C 6.7 g/m*3 6.9 C 0 km/h
507 13-05-2010 05:17:05 6.8 C 6.65 g/m*3 6.8 C 0 km/h
508 13-05-2010 05:29:05 6.8 C 6.65 g/m*3 6.8 C 0 km/h
509 13-05-2010 05:41:05 6.7 C 6.61 g/m*3 6.7 C 0 km/h
510 13-05-2010 05:53:05 6.6 C 6.64 g/m*3 6.6 C 0 km/h
511 13-05-2010 06:05:05 6.6 C 6.64 g/m*3 6.6 C 0 km/h
512 13-05-2010 06:17:05 6.7 C 6.69 g/m*3 6.7 C 0 km/h
513 13-05-2010 06:29:05 6.7 C 6.69 g/m*3 6.7 C 0 km/h
514 13-05-2010 06:41:05 6.6 C 6.64 g/m*3 6.6 C 0 km/h
515 13-05-2010 06:53:05 6.6 C 6.64 g/m*3 6.6 C 0 km/h
516 13-05-2010 07:05:05 6.7 C 6.76 g/m*3 6.7 C 0 km/h
517 13-05-2010 07:17:05 6.7 C 6.76 g/m*3 6.7 C 0 km/h
518 13-05-2010 07:29:05 6.9 C 6.77 g/m*3 6.9 C 0 km/h
519 13-05-2010 07:41:05 6.9 C 6.7 g/m*3 6.9 C 0 km/h
520 13-05-2010 07:53:01 6.8 C 6.5 g/m*3 6.8 C 0 km/h
521 13-05-2010 08:05:01 6.8 C 6.42 g/m*3 6.8 C 0 km/h
522 13-05-2010 08:17:02 6.8 C 6.35 g/m*3 6.8 C 0 km/h
523 13-05-2010 08:29:02 6.9 C 6.31 g/m*3 6.9 C 0 km/h
524 13-05-2010 08:41:01 7 C 6.12 g/m*3 7 C 0 km/h
525 13-05-2010 08:53:02 7.2 C 6.12 g/m*3 7.2 C 0 km/h
Sensor: Nr:Datum:Temp:Abs-Feuchte:Windchill:Wind:
Aussen-T/F 526 13-05-2010 09:05:01 7.5 C 6.24 g/m*3 7.5 C 0 km/h
527 13-05-2010 09:17:01 7.8 C 6.2 g/m*3 7.8 C 0 km/h
528 13-05-2010 09:29:01 7.9 C 6 g/m*3 7.9 C 0 km/h
529 13-05-2010 09:41:01 8.2 C 5.86 g/m*3 8.2 C 0 km/h
530 13-05-2010 09:53:02 8.3 C 5.65 g/m*3 8.3 C 0 km/h
531 13-05-2010 10:05:01 8.9 C 5.69 g/m*3 8.9 C 0 km/h
532 13-05-2010 10:17:02 9.1 C 5.41 g/m*3 9.1 C 0 km/h
533 13-05-2010 10:29:02 9.7 C 5.62 g/m*3 9.7 C 0 km/h
534 13-05-2010 10:41:02 9.7 C 5.16 g/m*3 9.7 C 0 km/h
535 13-05-2010 10:53:01 9.9 C 5.23 g/m*3 9.9 C 0 km/h
536 13-05-2010 11:05:02 10.2 C 5.23 g/m*3 10.2 C 0 km/h
537 13-05-2010 11:17:01 10 C 4.98 g/m*3 10 C 0 km/h
538 13-05-2010 11:29:01 10.1 C 4.92 g/m*3 10.1 C 0 km/h
539 13-05-2010 11:41:02 9.5 C 5.01 g/m*3 9.5 C 0 km/h
540 13-05-2010 11:53:02 9.7 C 5.16 g/m*3 9.7 C 0 km/h
541 13-05-2010 12:05:02 9.7 C 4.89 g/m*3 9.7 C 0 km/h
542 13-05-2010 12:17:01 9.5 C 4.92 g/m*3 9.5 C 0 km/h
543 13-05-2010 12:29:01 10.2 C 4.95 g/m*3 10.2 C 0 km/h
544 13-05-2010 12:41:02 10.1 C 4.63 g/m*3 10.1 C 0 km/h
545 13-05-2010 12:53:02 10.8 C 4.84 g/m*3 10.8 C 0 km/h
546 13-05-2010 13:05:02 11 C 4.8 g/m*3 11 C 0 km/h
547 13-05-2010 13:17:01 10.1 C 4.92 g/m*3 10.1 C 0 km/h
548 13-05-2010 13:29:01 9.3 C 4.94 g/m*3 9.3 C 0 km/h
549 13-05-2010 13:41:02 8.9 C 5.08 g/m*3 8.9 C 0 km/h
550 13-05-2010 13:53:02 9.4 C 5.16 g/m*3 9.4 C 0 km/h
Sensor: Nr:Datum:Temp:Abs-Feuchte:Windchill:Wind:
Aussen-T/F 551 13-05-2010 14:05:02 10 C 5.17 g/m*3 10 C 0 km/h
552 13-05-2010 14:17:02 10.5 C 5.14 g/m*3 10.5 C 0 km/h
553 13-05-2010 14:29:02 10.9 C 5.07 g/m*3 10.9 C 0 km/h
554 13-05-2010 14:41:02 10.6 C 4.78 g/m*3 10.6 C 0 km/h
555 13-05-2010 14:53:01 11 C 4.9 g/m*3 11 C 0 km/h
556 13-05-2010 15:05:02 11 C 4.8 g/m*3 11 C 0 km/h
557 13-05-2010 15:17:02 10.5 C 4.85 g/m*3 10.5 C 0 km/h
558 13-05-2010 15:29:02 10 C 4.79 g/m*3 10 C 0 km/h
559 13-05-2010 15:41:02 9.8 C 5.1 g/m*3 9.8 C 0 km/h
560 13-05-2010 15:53:02 9.2 C 5.36 g/m*3 9.2 C 0 km/h
561 13-05-2010 16:05:01 8.7 C 5.53 g/m*3 8.7 C 0 km/h
562 13-05-2010 16:17:02 8.5 C 5.81 g/m*3 8.5 C 0 km/h
563 13-05-2010 16:29:02 8.6 C 6.02 g/m*3 8.6 C 0 km/h
564 13-05-2010 16:41:01 8.6 C 6.19 g/m*3 8.6 C 0 km/h
565 13-05-2010 16:53:02 8.9 C 6.57 g/m*3 8.9 C 0 km/h
566 13-05-2010 17:05:01 8.4 C 6.19 g/m*3 8.4 C 0 km/h
567 13-05-2010 17:17:02 8.2 C 6.28 g/m*3 8.2 C 0 km/h
568 13-05-2010 17:29:03 8.2 C 6.36 g/m*3 8.2 C 0 km/h
569 13-05-2010 17:41:01 8.2 C 6.53 g/m*3 8.2 C 0 km/h
570 13-05-2010 17:53:02 8.1 C 6.49 g/m*3 8.1 C 0 km/h
571 13-05-2010 18:05:02 8.3 C 6.66 g/m*3 8.3 C 0 km/h
572 13-05-2010 18:17:02 9 C 7.05 g/m*3 9 C 0 km/h
573 13-05-2010 18:29:02 8.9 C 7.1 g/m*3 8.9 C 0 km/h
574 13-05-2010 18:41:02 8.7 C 7.01 g/m*3 8.7 C 0 km/h
575 13-05-2010 18:53:02 7.9 C 6.74 g/m*3 7.9 C 0 km/h
Sensor: Nr:Datum:Temp:Abs-Feuchte:Windchill:Wind:
Aussen-T/F 576 13-05-2010 19:05:02 7.7 C 6.81 g/m*3 7.7 C 0 km/h
577 13-05-2010 19:17:01 7.5 C 6.8 g/m*3 7.5 C 0 km/h
578 13-05-2010 19:29:01 7.3 C 6.72 g/m*3 7.3 C 0 km/h
579 13-05-2010 19:41:02 7.3 C 6.79 g/m*3 7.3 C 0 km/h
580 13-05-2010 19:53:02 7.2 C 6.75 g/m*3 7.2 C 0 km/h
581 13-05-2010 20:05:02 7.3 C 6.87 g/m*3 7.3 C 0 km/h
582 13-05-2010 20:17:02 7.4 C 6.92 g/m*3 7.4 C 0 km/h
583 13-05-2010 20:29:02 7.4 C 7 g/m*3 7.4 C 0 km/h
584 13-05-2010 20:41:02 7.5 C 7.04 g/m*3 7.5 C 0 km/h
585 13-05-2010 20:53:01 7.6 C 7.09 g/m*3 7.6 C 0 km/h
586 13-05-2010 21:05:02 7.5 C 7.12 g/m*3 7.5 C 0 km/h
587 13-05-2010 21:17:01 7.5 C 7.12 g/m*3 7.5 C 0 km/h
588 13-05-2010 21:29:01 7.4 C 7.08 g/m*3 7.4 C 0 km/h
589 13-05-2010 21:41:01 7.4 C 7.08 g/m*3 7.4 C 0 km/h
590 13-05-2010 21:53:01 7.4 C 7.16 g/m*3 7.4 C 0 km/h
591 13-05-2010 22:05:02 7.4 C 7.16 g/m*3 7.4 C 0 km/h
592 13-05-2010 22:17:01 7.4 C 7.16 g/m*3 7.4 C 0 km/h
593 13-05-2010 22:29:01 7.3 C 7.11 g/m*3 7.3 C 0 km/h
594 13-05-2010 22:41:02 7.2 C 7.06 g/m*3 7.2 C 0 km/h
595 13-05-2010 22:54:02 7.2 C 7.06 g/m*3 7.2 C 0 km/h
596 13-05-2010 23:06:02 7.2 C 7.06 g/m*3 7.2 C 0 km/h
597 13-05-2010 23:18:03 7.3 C 7.11 g/m*3 7.3 C 0 km/h
598 13-05-2010 23:30:03 7.3 C 7.19 g/m*3 7.3 C 0 km/h
599 13-05-2010 23:42:03 7.2 C 7.14 g/m*3 7.2 C 0 km/h
600 13-05-2010 23:54:03 7.2 C 7.14 g/m*3 7.2 C 0 km/h
Sensor: Nr:Datum:Temp:Abs-Feuchte:Windchill:Wind:
Aussen-T/F 601 14-05-2010 00:06:03 7 C 7.05 g/m*3 7 C 0 km/h
602 14-05-2010 00:18:03 6.9 C 7.16 g/m*3 6.9 C 0 km/h
603 14-05-2010 00:30:03 6.9 C 7.16 g/m*3 6.9 C 0 km/h
604 14-05-2010 00:42:03 7 C 7.21 g/m*3 7 C 0 km/h
605 14-05-2010 00:54:03 7 C 7.21 g/m*3 7 C 0 km/h
606 14-05-2010 01:06:03 6.9 C 7.24 g/m*3 6.9 C 0 km/h
607 14-05-2010 01:18:03 7 C 7.21 g/m*3 7 C 0 km/h
608 14-05-2010 01:30:03 7.1 C 7.25 g/m*3 7.1 C 0 km/h
609 14-05-2010 01:42:03 7.1 C 7.25 g/m*3 7.1 C 0 km/h
610 14-05-2010 01:54:03 7.1 C 7.25 g/m*3 7.1 C 0 km/h
611 14-05-2010 02:06:03 7.1 C 7.25 g/m*3 7.1 C 0 km/h
612 14-05-2010 02:18:03 7 C 7.21 g/m*3 7 C 0 km/h
613 14-05-2010 02:30:03 6.9 C 7.24 g/m*3 6.9 C 0 km/h
614 14-05-2010 02:42:03 7 C 7.21 g/m*3 7 C 0 km/h
615 14-05-2010 02:54:03 7 C 7.28 g/m*3 7 C 0 km/h
616 14-05-2010 03:06:03 7 C 7.28 g/m*3 7 C 0 km/h
617 14-05-2010 03:18:03 6.9 C 7.24 g/m*3 6.9 C 0 km/h
618 14-05-2010 03:30:04 7 C 7.28 g/m*3 7 C 0 km/h
619 14-05-2010 03:42:04 7 C 7.28 g/m*3 7 C 0 km/h
620 14-05-2010 03:54:04 7 C 7.28 g/m*3 7 C 0 km/h
621 14-05-2010 04:06:04 7 C 7.28 g/m*3 7 C 0 km/h
622 14-05-2010 04:18:04 7 C 7.28 g/m*3 7 C 0 km/h
623 14-05-2010 04:30:04 6.9 C 7.24 g/m*3 6.9 C 0 km/h
624 14-05-2010 04:42:04 6.9 C 7.24 g/m*3 6.9 C 0 km/h
625 14-05-2010 04:54:04 6.9 C 7.24 g/m*3 6.9 C 0 km/h
Sensor: Nr:Datum:Temp:Abs-Feuchte:Windchill:Wind:
Aussen-T/F 626 14-05-2010 05:06:04 6.8 C 7.19 g/m*3 6.8 C 0 km/h
627 14-05-2010 05:18:04 6.9 C 7.24 g/m*3 6.9 C 0 km/h
628 14-05-2010 05:30:04 6.8 C 7.27 g/m*3 6.8 C 0 km/h
629 14-05-2010 05:42:04 6.9 C 7.31 g/m*3 6.9 C 0 km/h
630 14-05-2010 05:54:04 7 C 7.28 g/m*3 7 C 0 km/h
631 14-05-2010 06:06:04 7.1 C 7.33 g/m*3 7.1 C 0 km/h
632 14-05-2010 06:18:04 7.1 C 7.33 g/m*3 7.1 C 0 km/h
633 14-05-2010 06:30:04 7 C 7.28 g/m*3 7 C 0 km/h
634 14-05-2010 06:42:04 7.1 C 7.33 g/m*3 7.1 C 0 km/h
635 14-05-2010 06:54:04 7.2 C 7.38 g/m*3 7.2 C 0 km/h
636 14-05-2010 07:06:02 7.2 C 7.3 g/m*3 7.2 C 0 km/h
637 14-05-2010 07:18:02 7.3 C 7.35 g/m*3 7.3 C 0 km/h
638 14-05-2010 07:30:02 7.5 C 7.44 g/m*3 7.5 C 0 km/h
639 14-05-2010 07:42:02 7.5 C 7.44 g/m*3 7.5 C 0 km/h
640 14-05-2010 07:54:01 7.5 C 7.36 g/m*3 7.5 C 0 km/h
641 14-05-2010 08:06:02 7.7 C 7.38 g/m*3 7.7 C 0 km/h
642 14-05-2010 08:18:01 7.9 C 7.47 g/m*3 7.9 C 0 km/h
643 14-05-2010 08:30:01 8.1 C 7.41 g/m*3 8.1 C 0 km/h
644 14-05-2010 08:42:02 7.9 C 7.31 g/m*3 7.9 C 0 km/h
645 14-05-2010 08:54:02 8 C 7.19 g/m*3 8 C 0 km/h
646 14-05-2010 09:06:02 8 C 7.19 g/m*3 8 C 0 km/h
647 14-05-2010 09:18:01 7.9 C 7.15 g/m*3 7.9 C 0 km/h
648 14-05-2010 09:30:01 8 C 7.03 g/m*3 8 C 0 km/h
649 14-05-2010 09:42:02 8.6 C 7.39 g/m*3 8.6 C 0 km/h
650 14-05-2010 09:54:02 8.4 C 7.13 g/m*3 8.4 C 0 km/h
Sensor: Nr:Datum:Temp:Abs-Feuchte:Windchill:Wind:
Aussen-T/F 651 14-05-2010 10:06:02 8.7 C 7.18 g/m*3 8.7 C 0 km/h
652 14-05-2010 10:18:02 9.4 C 7.33 g/m*3 9.4 C 0 km/h
653 14-05-2010 10:30:02 9.5 C 7.01 g/m*3 9.5 C 0 km/h
654 14-05-2010 10:42:02 10 C 7.24 g/m*3 10 C 0 km/h
655 14-05-2010 10:54:01 10.3 C 7.18 g/m*3 10.3 C 0 km/h
656 14-05-2010 11:06:02 11 C 7.31 g/m*3 11 C 0 km/h
657 14-05-2010 11:18:02 10.5 C 6.6 g/m*3 10.5 C 0 km/h
658 14-05-2010 11:30:02 10.1 C 6.34 g/m*3 10.1 C 0 km/h
659 14-05-2010 11:42:02 10.4 C 6.75 g/m*3 10.4 C 0 km/h
660 14-05-2010 11:54:02 9.9 C 6.82 g/m*3 9.9 C 0 km/h
661 14-05-2010 12:06:01 9.1 C 6.39 g/m*3 9.1 C 0 km/h
662 14-05-2010 12:18:02 9 C 6.44 g/m*3 9 C 0 km/h
663 14-05-2010 12:30:02 9.3 C 7.1 g/m*3 9.3 C 0 km/h
664 14-05-2010 12:42:01 9.3 C 7.28 g/m*3 9.3 C 0 km/h
665 14-05-2010 12:54:02 9.1 C 7.28 g/m*3 9.1 C 0 km/h
666 14-05-2010 13:06:01 9.3 C 7.46 g/m*3 9.3 C 0 km/h
667 14-05-2010 13:18:01 9.5 C 7.65 g/m*3 9.5 C 0 km/h
668 14-05-2010 13:30:01 9.6 C 7.69 g/m*3 9.6 C 0 km/h
669 14-05-2010 13:42:02 9.7 C 7.74 g/m*3 9.7 C 0 km/h
670 14-05-2010 13:54:02 9.2 C 7.41 g/m*3 9.2 C 0 km/h
671 14-05-2010 14:06:01 9 C 7.41 g/m*3 9 C 0 km/h
672 14-05-2010 14:18:02 9.2 C 7.59 g/m*3 9.2 C 0 km/h
673 14-05-2010 14:30:02 9.5 C 7.74 g/m*3 9.5 C 0 km/h
674 14-05-2010 14:42:02 9.7 C 7.84 g/m*3 9.7 C 0 km/h
675 14-05-2010 14:54:02 10.5 C 8.15 g/m*3 10.5 C 0 km/h
Sensor: Nr:Datum:Temp:Abs-Feuchte:Windchill:Wind:
Aussen-T/F 676 14-05-2010 15:06:02 11.2 C 8.21 g/m*3 11.2 C 0 km/h
677 14-05-2010 15:18:01 11.7 C 7.95 g/m*3 11.7 C 0 km/h
678 14-05-2010 15:30:01 12 C 7.67 g/m*3 12 C 0 km/h
679 14-05-2010 15:42:02 12.2 C 7.23 g/m*3 12.2 C 0 km/h
680 14-05-2010 15:54:02 12.2 C 6.91 g/m*3 12.2 C 0 km/h
681 14-05-2010 16:06:02 12.6 C 6.97 g/m*3 12.6 C 0 km/h
682 14-05-2010 16:18:01 12.8 C 7.06 g/m*3 12.8 C 0 km/h
683 14-05-2010 16:30:01 13.3 C 6.93 g/m*3 13.3 C 0 km/h
684 14-05-2010 16:42:02 13.4 C 6.63 g/m*3 13.4 C 0 km/h
685 14-05-2010 16:54:02 12.8 C 6.27 g/m*3 12.8 C 0 km/h
686 14-05-2010 17:06:02 12.2 C 6.37 g/m*3 12.2 C 0 km/h
687 14-05-2010 17:18:02 11.9 C 6.25 g/m*3 11.9 C 0 km/h
688 14-05-2010 17:30:02 11.4 C 6.77 g/m*3 11.4 C 0 km/h
689 14-05-2010 17:42:02 11 C 6.81 g/m*3 11 C 0 km/h
690 14-05-2010 17:54:02 11.2 C 6.79 g/m*3 11.2 C 0 km/h
691 14-05-2010 18:06:02 11.5 C 6.71 g/m*3 11.5 C 0 km/h
692 14-05-2010 18:18:03 11.8 C 6.74 g/m*3 11.8 C 0 km/h
693 14-05-2010 18:30:03 12 C 6.82 g/m*3 12 C 0 km/h
694 14-05-2010 18:42:02 11.5 C 6.71 g/m*3 11.5 C 0 km/h
695 14-05-2010 18:54:02 11 C 6.81 g/m*3 11 C 0 km/h
696 14-05-2010 19:06:02 10.5 C 6.89 g/m*3 10.5 C 0 km/h
697 14-05-2010 19:18:03 10.3 C 6.99 g/m*3 10.3 C 0 km/h
698 14-05-2010 19:30:03 10.4 C 7.13 g/m*3 10.4 C 0 km/h
699 14-05-2010 19:42:02 10.5 C 6.98 g/m*3 10.5 C 0 km/h
700 14-05-2010 19:54:02 10.6 C 7.03 g/m*3 10.6 C 0 km/h
Sensor: Nr:Datum:Temp:Abs-Feuchte:Windchill:Wind:
Aussen-T/F 701 14-05-2010 20:06:02 10.5 C 7.08 g/m*3 10.5 C 0 km/h
702 14-05-2010 20:18:02 10.2 C 6.95 g/m*3 10.2 C 0 km/h
703 14-05-2010 20:30:02 9.9 C 6.91 g/m*3 9.9 C 0 km/h
704 14-05-2010 20:42:02 9.6 C 6.78 g/m*3 9.6 C 0 km/h
705 14-05-2010 20:54:02 9.5 C 6.92 g/m*3 9.5 C 0 km/h
706 14-05-2010 21:06:02 9.3 C 6.83 g/m*3 9.3 C 0 km/h
707 14-05-2010 21:18:02 9.2 C 6.88 g/m*3 9.2 C 0 km/h
708 14-05-2010 21:30:02 9.1 C 6.83 g/m*3 9.1 C 0 km/h
709 14-05-2010 21:42:02 9.1 C 6.92 g/m*3 9.1 C 0 km/h
710 14-05-2010 21:54:02 9 C 6.88 g/m*3 9 C 0 km/h
711 14-05-2010 22:06:02 9.1 C 7.01 g/m*3 9.1 C 0 km/h
712 14-05-2010 22:18:02 9.1 C 7.01 g/m*3 9.1 C 0 km/h
713 14-05-2010 22:30:02 9.1 C 7.1 g/m*3 9.1 C 0 km/h
714 14-05-2010 22:42:02 9.1 C 7.1 g/m*3 9.1 C 0 km/h
715 14-05-2010 22:55:03 9 C 7.14 g/m*3 9 C 0 km/h
716 14-05-2010 23:07:03 8.6 C 7.13 g/m*3 8.6 C 0 km/h
717 14-05-2010 23:19:03 8.2 C 7.12 g/m*3 8.2 C 0 km/h
718 14-05-2010 23:31:03 8.2 C 7.2 g/m*3 8.2 C 0 km/h
719 14-05-2010 23:43:03 8.1 C 7.16 g/m*3 8.1 C 0 km/h
720 14-05-2010 23:55:03 8.1 C 7.24 g/m*3 8.1 C 0 km/h
721 15-05-2010 00:07:03 8 C 7.19 g/m*3 8 C 0 km/h
722 15-05-2010 00:19:03 8 C 7.19 g/m*3 8 C 0 km/h
723 15-05-2010 00:31:04 7.9 C 7.23 g/m*3 7.9 C 0 km/h
724 15-05-2010 00:43:04 7.8 C 7.18 g/m*3 7.8 C 0 km/h
725 15-05-2010 00:55:04 7.8 C 7.18 g/m*3 7.8 C 0 km/h
Sensor: Nr:Datum:Temp:Abs-Feuchte:Windchill:Wind:
Aussen-T/F 726 15-05-2010 01:07:04 7.9 C 7.23 g/m*3 7.9 C 0 km/h
727 15-05-2010 01:19:04 7.8 C 7.18 g/m*3 7.8 C 0 km/h
728 15-05-2010 01:31:04 7.6 C 7.09 g/m*3 7.6 C 0 km/h
729 15-05-2010 01:43:04 7.6 C 7.09 g/m*3 7.6 C 0 km/h
730 15-05-2010 01:55:04 7.6 C 7.09 g/m*3 7.6 C 0 km/h
731 15-05-2010 02:07:04 7.5 C 7.04 g/m*3 7.5 C 0 km/h
732 15-05-2010 02:19:04 7.5 C 7.12 g/m*3 7.5 C 0 km/h
733 15-05-2010 02:31:04 7.6 C 7.17 g/m*3 7.6 C 0 km/h
734 15-05-2010 02:43:04 7.8 C 7.26 g/m*3 7.8 C 0 km/h
735 15-05-2010 02:55:04 7.8 C 7.26 g/m*3 7.8 C 0 km/h
736 15-05-2010 03:07:04 7.6 C 7.17 g/m*3 7.6 C 0 km/h
737 15-05-2010 03:19:04 7.6 C 7.17 g/m*3 7.6 C 0 km/h
738 15-05-2010 03:31:04 7.6 C 7.25 g/m*3 7.6 C 0 km/h
739 15-05-2010 03:43:04 7.6 C 7.25 g/m*3 7.6 C 0 km/h
740 15-05-2010 03:55:04 7.6 C 7.25 g/m*3 7.6 C 0 km/h
741 15-05-2010 04:07:04 7.6 C 7.25 g/m*3 7.6 C 0 km/h
742 15-05-2010 04:19:04 7.7 C 7.3 g/m*3 7.7 C 0 km/h
743 15-05-2010 04:31:04 7.6 C 7.25 g/m*3 7.6 C 0 km/h
744 15-05-2010 04:43:05 7.6 C 7.25 g/m*3 7.6 C 0 km/h
745 15-05-2010 04:55:05 7.5 C 7.2 g/m*3 7.5 C 0 km/h
746 15-05-2010 05:07:05 7.4 C 7.24 g/m*3 7.4 C 0 km/h
747 15-05-2010 05:19:05 7.3 C 7.19 g/m*3 7.3 C 0 km/h
748 15-05-2010 05:31:05 7.3 C 7.19 g/m*3 7.3 C 0 km/h
749 15-05-2010 05:43:05 7.2 C 7.14 g/m*3 7.2 C 0 km/h
750 15-05-2010 05:55:05 7.1 C 7.1 g/m*3 7.1 C 0 km/h
Sensor: Nr:Datum:Temp:Abs-Feuchte:Windchill:Wind:
Aussen-T/F 751 15-05-2010 06:07:05 7.1 C 7.1 g/m*3 7.1 C 0 km/h
752 15-05-2010 06:19:05 7.1 C 7.1 g/m*3 7.1 C 0 km/h
753 15-05-2010 06:31:05 7.1 C 7.18 g/m*3 7.1 C 0 km/h
754 15-05-2010 06:43:05 7.1 C 7.18 g/m*3 7.1 C 0 km/h
755 15-05-2010 06:55:05 7.1 C 7.18 g/m*3 7.1 C 0 km/h
756 15-05-2010 07:07:05 7.1 C 7.18 g/m*3 7.1 C 0 km/h
757 15-05-2010 07:19:05 7.4 C 7.32 g/m*3 7.4 C 0 km/h
758 15-05-2010 07:31:05 7.5 C 7.36 g/m*3 7.5 C 0 km/h
759 15-05-2010 07:43:05 7.8 C 7.51 g/m*3 7.8 C 0 km/h
760 15-05-2010 07:55:02 8.2 C 7.62 g/m*3 8.2 C 0 km/h
761 15-05-2010 08:07:02 8.3 C 7.59 g/m*3 8.3 C 0 km/h
762 15-05-2010 08:19:02 8.2 C 7.29 g/m*3 8.2 C 0 km/h
763 15-05-2010 08:31:03 8.6 C 7.39 g/m*3 8.6 C 0 km/h
764 15-05-2010 08:43:03 8.5 C 7 g/m*3 8.5 C 0 km/h
765 15-05-2010 08:55:02 8.8 C 7.05 g/m*3 8.8 C 0 km/h
766 15-05-2010 09:07:02 9 C 6.88 g/m*3 9 C 0 km/h
767 15-05-2010 09:19:02 9.3 C 6.92 g/m*3 9.3 C 0 km/h
768 15-05-2010 09:31:02 9.5 C 6.83 g/m*3 9.5 C 0 km/h
769 15-05-2010 09:43:02 9.6 C 6.78 g/m*3 9.6 C 0 km/h
770 15-05-2010 09:55:01 10 C 6.67 g/m*3 10 C 0 km/h
771 15-05-2010 10:07:02 10.5 C 6.6 g/m*3 10.5 C 0 km/h
772 15-05-2010 10:19:01 10.7 C 6.48 g/m*3 10.7 C 0 km/h
773 15-05-2010 10:31:02 10.6 C 6.34 g/m*3 10.6 C 0 km/h
774 15-05-2010 10:43:02 11.1 C 6.35 g/m*3 11.1 C 0 km/h
775 15-05-2010 10:55:02 11.1 C 6.35 g/m*3 11.1 C 0 km/h
Sensor: Nr:Datum:Temp:Abs-Feuchte:Windchill:Wind:
Aussen-T/F 776 15-05-2010 11:07:02 10.9 C 6.27 g/m*3 10.9 C 0 km/h
777 15-05-2010 11:19:01 10.8 C 6.23 g/m*3 10.8 C 0 km/h
778 15-05-2010 11:31:02 10.9 C 6.17 g/m*3 10.9 C 0 km/h
779 15-05-2010 11:43:02 11.5 C 5.89 g/m*3 11.5 C 0 km/h
780 15-05-2010 11:55:02 11.9 C 6.04 g/m*3 11.9 C 0 km/h
781 15-05-2010 12:07:02 11.2 C 5.68 g/m*3 11.2 C 0 km/h
782 15-05-2010 12:19:02 11.1 C 5.64 g/m*3 11.1 C 0 km/h
783 15-05-2010 12:31:02 11.2 C 5.57 g/m*3 11.2 C 0 km/h
784 15-05-2010 12:43:02 12.4 C 5.46 g/m*3 12.4 C 0 km/h
785 15-05-2010 12:55:02 12.3 C 4.78 g/m*3 12.3 C 0 km/h
786 15-05-2010 13:07:02 13.9 C 5.04 g/m*3 13.9 C 0 km/h
787 15-05-2010 13:19:03 12 C 4.58 g/m*3 12 C 0 km/h
788 15-05-2010 13:31:02 11.1 C 5.14 g/m*3 11.1 C 0 km/h
789 15-05-2010 13:43:02 11.2 C 4.87 g/m*3 11.2 C 0 km/h
790 15-05-2010 13:55:02 12.1 C 4.5 g/m*3 12.1 C 0 km/h
791 15-05-2010 14:07:02 13.7 C 4.5 g/m*3 13.7 C 0 km/h
792 15-05-2010 14:19:02 15 C 4.62 g/m*3 15 C 0 km/h
793 15-05-2010 14:31:02 14.7 C 4.15 g/m*3 14.7 C 0 km/h
794 15-05-2010 14:43:02 14 C 3.98 g/m*3 14 C 0 km/h
795 15-05-2010 14:55:01 13.9 C 3.72 g/m*3 13.9 C 0 km/h
796 15-05-2010 15:07:01 14.3 C 3.56 g/m*3 14.3 C 0 km/h
797 15-05-2010 15:19:01 15.2 C 3.24 g/m*3 15.2 C 0 km/h
798 15-05-2010 15:31:01 15.8 C 2.69 g/m*3 15.8 C 0 km/h
799 15-05-2010 15:43:01 16 C 2.72 g/m*3 16 C 0 km/h
800 15-05-2010 15:55:01 16.2 C 2.76 g/m*3 16.2 C 0 km/h
Sensor: Nr:Datum:Temp:Abs-Feuchte:Windchill:Wind:
Aussen-T/F 801 15-05-2010 16:07:02 16.2 C 2.76 g/m*3 16.2 C 0 km/h
802 15-05-2010 16:19:01 15.1 C 2.58 g/m*3 15.1 C 0 km/h
803 15-05-2010 16:31:01 14.4 C 2.47 g/m*3 14.4 C 0 km/h
804 15-05-2010 16:43:01 14.4 C 2.97 g/m*3 14.4 C 0 km/h
805 15-05-2010 16:55:01 13.8 C 2.98 g/m*3 13.8 C 0 km/h
806 15-05-2010 17:07:02 13.9 C 3.12 g/m*3 13.9 C 0 km/h
807 15-05-2010 17:19:01 14 C 3.02 g/m*3 14 C 0 km/h
808 15-05-2010 17:31:02 14.1 C 3.16 g/m*3 14.1 C 0 km/h
809 15-05-2010 17:43:02 14 C 3.26 g/m*3 14 C 0 km/h
810 15-05-2010 17:55:02 14 C 3.26 g/m*3 14 C 0 km/h
811 15-05-2010 18:07:02 13.7 C 3.43 g/m*3 13.7 C 0 km/h
812 15-05-2010 18:19:01 14 C 3.62 g/m*3 14 C 0 km/h
813 15-05-2010 18:31:02 13.8 C 3.46 g/m*3 13.8 C 0 km/h
814 15-05-2010 18:43:02 13.7 C 3.43 g/m*3 13.7 C 0 km/h
815 15-05-2010 18:55:02 13.9 C 3.36 g/m*3 13.9 C 0 km/h
816 15-05-2010 19:07:02 13.9 C 3.24 g/m*3 13.9 C 0 km/h
817 15-05-2010 19:19:02 14.6 C 3.5 g/m*3 14.6 C 0 km/h
818 15-05-2010 19:31:02 15.1 C 3.23 g/m*3 15.1 C 0 km/h
819 15-05-2010 19:43:02 14.9 C 3.44 g/m*3 14.9 C 0 km/h
820 15-05-2010 19:55:02 14.4 C 3.58 g/m*3 14.4 C 0 km/h
821 15-05-2010 20:07:02 13.9 C 4.2 g/m*3 13.9 C 0 km/h
822 15-05-2010 20:19:02 13.3 C 4.62 g/m*3 13.3 C 0 km/h
823 15-05-2010 20:31:02 12.4 C 4.48 g/m*3 12.4 C 0 km/h
824 15-05-2010 20:43:02 11.6 C 4.47 g/m*3 11.6 C 0 km/h
825 15-05-2010 20:55:02 11.3 C 4.59 g/m*3 11.3 C 0 km/h
Sensor: Nr:Datum:Temp:Abs-Feuchte:Windchill:Wind:
Aussen-T/F 826 15-05-2010 21:07:02 11.4 C 4.62 g/m*3 11.4 C 0 km/h
827 15-05-2010 21:19:02 11.1 C 4.53 g/m*3 11.1 C 0 km/h
828 15-05-2010 21:31:02 10.8 C 4.55 g/m*3 10.8 C 0 km/h
829 15-05-2010 21:43:02 10.8 C 4.84 g/m*3 10.8 C 0 km/h
830 15-05-2010 21:55:01 10.8 C 4.84 g/m*3 10.8 C 0 km/h
831 15-05-2010 22:07:02 10.8 C 4.94 g/m*3 10.8 C 0 km/h
832 15-05-2010 22:19:02 11 C 5 g/m*3 11 C 0 km/h
833 15-05-2010 22:32:02 11.1 C 4.83 g/m*3 11.1 C 0 km/h
834 15-05-2010 22:44:03 11.2 C 4.66 g/m*3 11.2 C 0 km/h
835 15-05-2010 22:56:03 11.2 C 4.66 g/m*3 11.2 C 0 km/h
836 15-05-2010 23:08:03 11.1 C 4.73 g/m*3 11.1 C 0 km/h
837 15-05-2010 23:20:03 10.9 C 4.97 g/m*3 10.9 C 0 km/h
838 15-05-2010 23:32:03 10.9 C 5.07 g/m*3 10.9 C 0 km/h
839 15-05-2010 23:44:03 10.8 C 5.04 g/m*3 10.8 C 0 km/h
840 15-05-2010 23:56:03 10.5 C 5.04 g/m*3 10.5 C 0 km/h

Legende:
   Min
   Max


Maximal/Minimal-Werte vom 14.04.2020 - 16.05.2020

Sensor Min Max Avg
Temp
(Aussen-T/F)
-0.1 °C
15-04-2020  06:55:00
26.2 °C
17-04-2020  18:05:00
11.98 °C

Die Daten stammen von einer Davis Vantage Pro 2 Wetter-Station und werden unter Linux mit der Software wview2wettercgi und aufbereitet. Alle Angaben erfolgen ohne Gewähr für ihre Vollständigkeit oder Richtigkeit.
Kontakt: Rainer Krienke krienke@uni-koblenz.de . Meine Webseiten an der Uni Koblenz oder privat.
Version: $Revision: 0.78 $